Location: Czu?�w
(50.1404°N, 18.9919°E)
Time: 03:41:55
(UTC+00:00)

USA 307 - Pass Details

Date: 27 October 2020
Orbit: 569 x 579 km, 54.0° (Epoch: 23 November)

Event Time Altitude Azimuth Distance (km) Brightness Sun altitude
Rises 16:55:55 0° 293° (WNW) 2,791 7.6 -14.5°
Reaches altitude 10° 16:58:11 10° 294° (WNW) 1,889 6.6 -14.9°
Maximum altitude 17:02:30 80° 22° (NNE) 588 2.8 -15.5°
Enters shadow 17:04:39 29° 106° (ESE) 1,076 3.7 -15.9°
